Location: Grange Verzio
(44.5000°N, 6.9833°E)
Time: 16:48:43
(UTC+00:00)

Cosmos 676 Rocket - Pass Details

Date: 01 February 2023
Orbit: 754 x 782 km, 74.0° (Epoch: 29 March)

Event Time Altitude Azimuth Distance (km) Brightness Sun altitude
Rises 18:25:34 0° 204° (SSW) 3,249 7.7 -18.9°
Reaches altitude 10° 18:27:57 10° 206° (SSW) 2,322 6.9 -19.3°
Maximum altitude 18:33:14 76° 291° (WNW) 803 4.1 -20.2°
Enters shadow 18:38:27 10° 18° (NNE) 2,300 6.3 -21.2°
